Columbia, SC

9:08 PM EST on February 21, 2017 (GMT -0500)
Columbia Owens Downtown

Weather History for KCUB - December, 2012

Change the Weather History Date:

Monday, December 31, 2012

  Actual Average Record
Temperature  
Mean Temperature 44 °F 46 °F  
Max Temperature 59 °F 56 °F 72 °F (2015)
Min Temperature 28 °F 36 °F 19 °F (2000)
Degree Days  
Heating Degree Days 21 19  
Month to date heating degree days 359 528  
Since 1 July heating degree days 793 900  
Cooling Degree Days 0 0  
Month to date cooling degree days 1 4  
Year to date cooling degree days 2517 2260  
Moisture  
Dew Point 31 °F    
Average Humidity 65    
Maximum Humidity 92    
Minimum Humidity 28    
Precipitation  
Precipitation 0.00 in 0.09 in 0.08 in (2006)
Month to date precipitation 3.59 3.20  
Year to date precipitation 43.12 45.40  
Sea Level Pressure  
Sea Level Pressure 30.33 in    
Wind  
Wind Speed 2 mph (WSW)    
Max Wind Speed 14 mph    
Max Gust Speed 20 mph    
Visibility 8 miles    
Events      
T = Trace of Precipitation, MM = Missing Value Source: NWS Daily Summary

Daily Weather History Graph

Daily Weather History Graph

Search for Another Location

Airport or City:

Trip Planner

Search our weather history database for the weather conditions in past years. The results will help you decide how hot, cold, wet, or windy it might be!

Date:

Astronomy

Dec. 31, 2012 Rise Set
Actual Time 7:29 AM EST 5:25 PM EST
Civil Twilight 7:01 AM EST 5:53 PM EST
Nautical Twilight 6:30 AM EST 6:24 PM EST
Astronomical Twilight 6:00 AM EST 6:54 PM EST
Moon 8:44 PM EST (12/31) 9:18 AM EST (12/31)
Length of Visible Light 10h 51m
Length of Day
9h 56m
Waning Gibbous, 90% of the Moon is Illuminated
Dec 31
Waning Gibbous
Jan 4
Last Quarter
Jan 11
New
Jan 18
First Quarter
Jan 26
Full

Hourly Weather History & Observations

Time (EST) Temp. Dew Point Humidity Pressure Visibility Wind Dir Wind Speed Gust Speed Precip Events Conditions
12:53 AM 30.0 °F 27.0 °F 88% 30.40 in 5.0 mi Calm Calm - N/A   Clear
1:53 AM 30.0 °F 27.0 °F 88% 30.39 in 6.0 mi Calm Calm - N/A   Clear
2:53 AM 28.9 °F 26.1 °F 89% 30.40 in 3.0 mi Calm Calm - N/A   Clear
3:53 AM 28.9 °F 26.1 °F 89% 30.41 in 5.0 mi Calm Calm - N/A   Clear
4:53 AM 28.0 °F 26.1 °F 92% 30.41 in 5.0 mi Calm Calm - N/A   Clear
5:53 AM 28.9 °F 26.1 °F 89% 30.40 in 6.0 mi Calm Calm - N/A   Clear
6:53 AM 30.0 °F 27.0 °F 88% 30.42 in 6.0 mi Calm Calm - N/A   Clear
7:53 AM 30.9 °F 28.9 °F 92% 30.42 in 7.0 mi Calm Calm - N/A   Clear
8:53 AM 36.0 °F 28.9 °F 76% 30.45 in 10.0 mi Calm Calm - N/A   Clear
9:53 AM 41.0 °F 28.9 °F 62% 30.42 in 10.0 mi Calm Calm - N/A   Clear
10:53 AM 46.0 °F 28.9 °F 51% 30.41 in 10.0 mi Calm Calm - N/A   Clear
11:53 AM 50.0 °F 27.0 °F 41% 30.38 in 10.0 mi Calm Calm - N/A   Clear
12:53 PM 54.0 °F 23.0 °F 30% 30.31 in 10.0 mi SW 8.1 mph - N/A   Clear
1:53 PM 57.0 °F 24.1 °F 28% 30.29 in 10.0 mi SW 9.2 mph - N/A   Clear
2:53 PM 59.0 °F 30.0 °F 33% 30.27 in 10.0 mi WSW 6.9 mph - N/A   Clear
3:53 PM 59.0 °F 35.1 °F 41% 30.24 in 10.0 mi WSW 6.9 mph - N/A   Clear
4:53 PM 57.0 °F 37.0 °F 47% 30.24 in 10.0 mi WSW 3.5 mph - N/A   Clear
5:53 PM 55.9 °F 37.9 °F 51% 30.25 in 10.0 mi Calm Calm - N/A   Overcast
6:53 PM 55.0 °F 39.0 °F 55% 30.24 in 10.0 mi Calm Calm - N/A   Overcast
7:53 PM 54.0 °F 39.9 °F 59% 30.24 in 10.0 mi Calm Calm - N/A   Overcast
8:53 PM 52.0 °F 41.0 °F 66% 30.22 in 9.0 mi Calm Calm - N/A   Overcast
9:53 PM 52.0 °F 41.0 °F 66% 30.20 in 10.0 mi Calm Calm - N/A   Overcast
11:53 PM 54.0 °F 42.1 °F 64% 30.19 in 10.0 mi Calm Calm - N/A   Overcast